This is the latest recevied weather packets stored in our database for station/object DM1RG-6. If no packets are shown the sender has not sent any weather packets the latest 1 day(s).
| Time | Temp. | Humidity | Pressure | Rain* | Wind** | Luminosity | Snow |
|---|---|---|---|---|---|---|---|
| 1777963323 | 13.89° C | 92% | 1009 hPa | 0 mm | 1.34 m/s, 102° | - | - |
| 1777962964 | 13.33° C | 92% | 1008.9 hPa | 0 mm | 1.34 m/s, 85° | - | - |
| 1777962604 | 13.33° C | 92% | 1009 hPa | 0 mm | 1.79 m/s, 83° | - | - |
| 1777962243 | 13.33° C | 91% | 1009 hPa | 0 mm | 1.34 m/s, 81° | - | - |
| 1777961884 | 13.33° C | 91% | 1009 hPa | 0 mm | 1.34 m/s, 88° | - | - |
| 1777961523 | 13.33° C | 90% | 1009 hPa | 0 mm | 1.34 m/s, 100° | - | - |
| 1777961163 | 13.33° C | 90% | 1009.1 hPa | 0 mm | 0.89 m/s, 72° | - | - |
| 1777960804 | 13.33° C | 90% | 1009.1 hPa | 0 mm | 0.89 m/s, 30° | - | - |
| 1777960444 | 13.33° C | 90% | 1009.2 hPa | 0 mm | 0.89 m/s, 43° | - | - |
| 1777960083 | 13.33° C | 89% | 1009.1 hPa | 0 mm | 0.89 m/s, 45° | - | - |
| 1777959723 | 13.33° C | 89% | 1009.3 hPa | 0 mm | 0.89 m/s, 48° | - | - |
| 1777959364 | 13.33° C | 89% | 1009.2 hPa | 0 mm | 1.34 m/s, 62° | - | - |
| 1777959003 | 13.89° C | 88% | 1009.2 hPa | 0 mm | 0.89 m/s, 47° | - | - |
| 1777958643 | 13.89° C | 88% | 1009.2 hPa | 0 mm | 0 m/s | - | - |
| 1777958283 | 13.89° C | 88% | 1009.2 hPa | 0 mm | 0 m/s | - | - |
| 1777957923 | 13.89° C | 88% | 1009.2 hPa | 0 mm | 0 m/s | - | - |
| 1777957563 | 13.89° C | 88% | 1009.2 hPa | 0 mm | 0 m/s | - | - |
| 1777957203 | 13.89° C | 88% | 1009 hPa | 0 mm | 0.45 m/s, 7° | - | - |
| 1777956844 | 13.89° C | 88% | 1009.1 hPa | 0 mm | 0.89 m/s, 17° | - | - |
| 1777956483 | 13.33° C | 88% | 1009.2 hPa | 0 mm | 0.89 m/s, 23° | - | - |
| 1777956123 | 13.89° C | 88% | 1009 hPa | 0 mm | 0.45 m/s, 15° | - | - |
| 1777955763 | 13.89° C | 88% | 1009.1 hPa | 0 mm | 0.45 m/s, 20° | - | - |
| 1777955404 | 13.89° C | 88% | 1009.1 hPa | 0 mm | 0.45 m/s, 30° | - | - |
| 1777955043 | 13.89° C | 87% | 1009.1 hPa | 0 mm | 0.89 m/s, 25° | - | - |
| 1777954683 | 13.89° C | 87% | 1009.2 hPa | 0 mm | 0.89 m/s, 35° | - | - |
* Rain latest hour (hover to see other rain measurements)
** Current wind speed in m/s (hover to see current wind gust speed)